When you browse on this site, cookies collect data to enhance your experience and personalize the content and advertising you see.
Visit our Privacy Policy to learn more. By continuing to use the site, you agree to this use of cookies and data.
  • în România
  • Lista ţărilor
  • Pe 7 zile
  • Temperatura apei
  • Hartă satelitară
  • Meteo pe hartă
  • Widget-uri
  • user-avatar
    Intrare

    Meteo pe oră la Achstetten

    Astăzi, 18 Februarie, Luni

    Timp Temperatura Precipitaţii Vânt Presiune Umiditate
    00:00 +4°C° 0 mm 2 m/s 722 mmHg 65%
    01:00 +3°C° 0 mm 2 m/s 721 mmHg 64%
    02:00 +3°C° 0 mm 2 m/s 721 mmHg 64%
    03:00 +3°C° 0 mm 2 m/s 721 mmHg 65%
    04:00 +3°C° 0 mm 2 m/s 721 mmHg 66%
    05:00 +2°C° 0 mm 2 m/s 721 mmHg 66%
    06:00 +2°C° 0 mm 2 m/s 721 mmHg 66%
    07:00 +1°C° 0 mm 2 m/s 720 mmHg 64%
    08:00 +4°C° 0 mm 1 m/s 720 mmHg 63%
    09:00 +6°C° 0 mm 1 m/s 720 mmHg 62%
    10:00 +7°C° 0 mm 1 m/s 720 mmHg 61%
    11:00 +9°C° 0 mm 1 m/s 720 mmHg 58%
    12:00 +10°C° 0 mm 1 m/s 720 mmHg 55%
    13:00 +12°C° 0 mm 1 m/s 719 mmHg 51%
    14:00 +12°C° 0 mm 1 m/s 719 mmHg 52%
    15:00 +11°C° 0 mm 0 m/s 719 mmHg 53%
    16:00 +11°C° 0 mm 0 m/s 718 mmHg 54%
    17:00 +10°C° 0 mm 1 m/s 718 mmHg 57%
    18:00 +8°C° 0 mm 1 m/s 718 mmHg 61%
    19:00 +6°C° 0 mm 1 m/s 718 mmHg 64%
    20:00 +4°C° 0 mm 2 m/s 718 mmHg 64%
    21:00 +4°C° 0 mm 2 m/s 718 mmHg 65%
    22:00 +3°C° 0 mm 2 m/s 719 mmHg 66%
    23:00 +2°C° 0 mm 3 m/s 719 mmHg 69%

    Mâine, 19 Februarie, Marţi

    Timp Temperatura Precipitaţii Vânt Presiune Umiditate
    00:00 +2°C° 0 mm 3 m/s 719 mmHg 72%
    01:00 +2°C° 0 mm 3 m/s 719 mmHg 74%
    02:00 +1°C° 0 mm 3 m/s 719 mmHg 76%
    03:00 +1°C° 0 mm 3 m/s 719 mmHg 79%
    04:00 +1°C° 0 mm 3 m/s 719 mmHg 81%
    05:00 +1°C° 0 mm 3 m/s 719 mmHg 81%
    06:00 +1°C° 0 mm 3 m/s 719 mmHg 82%
    07:00 0°C° 0 mm 3 m/s 719 mmHg 83%
    08:00 +2°C° 0 mm 3 m/s 719 mmHg 78%
    09:00 +4°C° 0 mm 4 m/s 719 mmHg 74%
    10:00 +5°C° 0 mm 4 m/s 719 mmHg 69%
    11:00 +6°C° 0 mm 4 m/s 719 mmHg 68%
    12:00 +8°C° 0 mm 4 m/s 719 mmHg 67%
    13:00 +10°C° 0 mm 4 m/s 719 mmHg 65%
    14:00 +10°C° 0 mm 4 m/s 719 mmHg 67%
    15:00 +10°C° 0 mm 4 m/s 719 mmHg 69%
    16:00 +10°C° 0 mm 4 m/s 719 mmHg 71%
    17:00 +8°C° 0 mm 3 m/s 719 mmHg 77%
    18:00 +7°C° 0 mm 3 m/s 720 mmHg 82%
    19:00 +6°C° 0 mm 2 m/s 720 mmHg 88%
    20:00 +6°C° 0 mm 2 m/s 720 mmHg 89%
    21:00 +5°C° 0 mm 2 m/s 721 mmHg 90%
    22:00 +6°C° 0 mm 1 m/s 721 mmHg 91%
    23:00 +6°C° 0 mm 1 m/s 721 mmHg 92%

    Poimâine, 20 Februarie, Miercuri

    Timp Temperatura Precipitaţii Vânt Presiune Umiditate
    00:00 +6°C° 0 mm 1 m/s 721 mmHg 92%
    01:00 +5°C° 0 mm 1 m/s 721 mmHg 93%
    02:00 +5°C° 0 mm 1 m/s 721 mmHg 93%
    03:00 +5°C° 0 mm 1 m/s 721 mmHg 93%
    04:00 +5°C° 0 mm 1 m/s 721 mmHg 92%
    05:00 +4°C° 0 mm 1 m/s 721 mmHg 92%
    06:00 +4°C° 0 mm 1 m/s 721 mmHg 92%
    07:00 +4°C° 0 mm 1 m/s 721 mmHg 91%
    08:00 +5°C° 0 mm 1 m/s 722 mmHg 87%
    09:00 +5°C° 0 mm 2 m/s 722 mmHg 83%
    10:00 +6°C° 0 mm 2 m/s 722 mmHg 79%
    11:00 +7°C° 0 mm 2 m/s 722 mmHg 75%
    12:00 +8°C° 0 mm 2 m/s 722 mmHg 71%
    13:00 +9°C° 0 mm 2 m/s 722 mmHg 66%
    14:00 +9°C° 0 mm 2 m/s 722 mmHg 67%
    15:00 +10°C° 0 mm 2 m/s 722 mmHg 67%
    16:00 +10°C° 0 mm 2 m/s 722 mmHg 68%
    17:00 +8°C° 0 mm 2 m/s 722 mmHg 73%
    18:00 +8°C° 0 mm 1 m/s 723 mmHg 78%
    19:00 +7°C° 0 mm 1 m/s 723 mmHg 84%
    20:00 +6°C° 0 mm 1 m/s 723 mmHg 85%
    21:00 +6°C° 0 mm 1 m/s 724 mmHg 86%
    22:00 +5°C° 0 mm 1 m/s 724 mmHg 87%
    23:00 +5°C° 0 mm 1 m/s 724 mmHg 87%

    21 Februarie, Joi

    Timp Temperatura Precipitaţii Vânt Presiune Umiditate
    00:00 +4°C° 0 mm 1 m/s 724 mmHg 87%
    01:00 +3°C° 0 mm 2 m/s 724 mmHg 88%
    02:00 +3°C° 0 mm 2 m/s 724 mmHg 88%
    03:00 +4°C° 0 mm 1 m/s 724 mmHg 88%
    04:00 +3°C° 0 mm 1 m/s 724 mmHg 88%
    05:00 +3°C° 0 mm 1 m/s 724 mmHg 88%
    06:00 +3°C° 0 mm 1 m/s 724 mmHg 88%
    07:00 +2°C° 0 mm 2 m/s 725 mmHg 88%
    08:00 +4°C° 0 mm 2 m/s 725 mmHg 83%
    09:00 +5°C° 0 mm 2 m/s 725 mmHg 78%
    10:00 +7°C° 0 mm 2 m/s 726 mmHg 73%
    11:00 +8°C° 0 mm 2 m/s 726 mmHg 69%
    12:00 +10°C° 0 mm 2 m/s 726 mmHg 64%
    13:00 +12°C° 0 mm 2 m/s 726 mmHg 60%
    14:00 +12°C° 0 mm 2 m/s 726 mmHg 61%
    15:00 +12°C° 0 mm 2 m/s 726 mmHg 61%
    16:00 +12°C° 0 mm 2 m/s 726 mmHg 62%
    17:00 +11°C° 0 mm 1 m/s 726 mmHg 68%
    18:00 +9°C° 0 mm 1 m/s 726 mmHg 75%
    19:00 +7°C° 0 mm 1 m/s 727 mmHg 82%
    20:00 +7°C° 0 mm 1 m/s 727 mmHg 83%
    21:00 +6°C° 0 mm 1 m/s 728 mmHg 84%
    22:00 +6°C° 0 mm 1 m/s 728 mmHg 85%
    23:00 +4°C° 0 mm 0 m/s 729 mmHg 86%

    22 Februarie, Vineri

    Timp Temperatura Precipitaţii Vânt Presiune Umiditate
    00:00 +4°C° 0 mm 0 m/s 729 mmHg 86%
    01:00 +4°C° 0 mm 0 m/s 729 mmHg 87%
    02:00 +3°C° 0 mm 0 m/s 729 mmHg 87%
    03:00 +3°C° 0 mm 0 m/s 729 mmHg 87%
    04:00 +3°C° 0 mm 0 m/s 729 mmHg 88%
    05:00 +3°C° 0 mm 0 m/s 729 mmHg 88%
    06:00 +3°C° 0 mm 0 m/s 730 mmHg 88%
    07:00 +2°C° 0 mm 0 m/s 730 mmHg 88%
    08:00 +4°C° 0 mm 0 m/s 730 mmHg 83%
    09:00 +6°C° 0 mm 0 m/s 731 mmHg 78%
    10:00 +8°C° 0 mm 1 m/s 731 mmHg 73%
    11:00 +10°C° 0 mm 1 m/s 731 mmHg 67%
    12:00 +11°C° 0 mm 1 m/s 731 mmHg 61%
    13:00 +12°C° 0 mm 2 m/s 731 mmHg 55%
    14:00 +12°C° 0 mm 2 m/s 731 mmHg 58%
    15:00 +11°C° 0 mm 3 m/s 731 mmHg 61%
    16:00 +11°C° 0 mm 3 m/s 731 mmHg 64%
    17:00 +10°C° 0 mm 3 m/s 731 mmHg 72%
    18:00 +8°C° 0 mm 3 m/s 731 mmHg 80%
    19:00 +5°C° 0 mm 3 m/s 731 mmHg 89%
    20:00 +5°C° 0 mm 3 m/s 731 mmHg 90%
    21:00 +4°C° 0 mm 3 m/s 731 mmHg 92%
    22:00 +4°C° 0 mm 3 m/s 731 mmHg 94%
    23:00 +3°C° 0 mm 3 m/s 731 mmHg 95%

    23 Februarie, Sâmbătă

    Timp Temperatura Precipitaţii Vânt Presiune Umiditate
    00:00 +3°C° 0 mm 3 m/s 731 mmHg 95%
    01:00 +3°C° 0 mm 3 m/s 731 mmHg 96%
    02:00 +3°C° 0 mm 3 m/s 731 mmHg 96%
    03:00 +3°C° 0 mm 3 m/s 731 mmHg 97%
    04:00 +2°C° 0 mm 3 m/s 730 mmHg 97%
    05:00 +2°C° 0 mm 3 m/s 730 mmHg 97%
    06:00 +2°C° 0 mm 3 m/s 730 mmHg 97%
    07:00 +2°C° 0 mm 3 m/s 730 mmHg 97%
    08:00 +3°C° 0 mm 3 m/s 730 mmHg 95%
    09:00 +3°C° 0 mm 4 m/s 730 mmHg 92%
    10:00 +4°C° 0 mm 4 m/s 731 mmHg 90%
    11:00 +6°C° 0 mm 4 m/s 731 mmHg 84%
    12:00 +7°C° 0 mm 4 m/s 730 mmHg 79%
    13:00 +8°C° 0 mm 4 m/s 730 mmHg 73%
    14:00 +10°C° 0 mm 4 m/s 730 mmHg 72%
    15:00 +10°C° 0 mm 4 m/s 730 mmHg 71%
    16:00 +10°C° 0 mm 4 m/s 730 mmHg 70%
    17:00 +8°C° 0 mm 3 m/s 730 mmHg 76%
    18:00 +7°C° 0 mm 3 m/s 730 mmHg 82%
    19:00 +5°C° 0 mm 2 m/s 730 mmHg 88%
    20:00 +5°C° 0 mm 2 m/s 730 mmHg 89%
    21:00 +4°C° 0 mm 2 m/s 730 mmHg 90%
    22:00 +4°C° 0 mm 2 m/s 730 mmHg 91%
    23:00 +4°C° 0 mm 2 m/s 730 mmHg 91%
    Arată mai mult